CAPE
0 0 0 0 0 0 0 0 12 0 0 0 0 0 0 0 0 0 0 0 0 0 0 0 0 0 0 0 0 0 0 0 0 0 0 0 0 0 0 0 0 0 0
0 0 0 0 0 1 7 24 10 6 0 0 0 0 0 0 0 0 0 0 0 0 0 0 0 0 0 0 0 0 0 0 0 0 0 0 0 0 0 0 0 0 0
0 0 0 0 0 0 4 1 0 0 0 0 0 0 0 0 0 0 0 0 0 0 0 0 0 0 0 0 0 0 0 0 0 0 0 0 0 0 0 0 0 0 0
0 0 0 0 0 0 0 0 0 0 0 0 0 0 0 0 0 0 0 0 0 0 0 0 0 0 0 0 0 0 0 0 0 0 0 0 0 0 0 0 0 0 0
0 0 0 0 0 0 0 0 0 0 0 0 0 0 0 0 0 0 0 0 0 0 0 0 0 0 0 0 0 0 0 0 0 0 0 0 0 0 0 0 0 0 0
0 0 0 0 0 0 0 0 0 0 0 0 0 0 0 0 0 0 0 0 0 0 0 0 0 0 0 0 0 0 0 0 0 0 0 0 0 0 0 0 0 0 0
0 0 0 0 0 0 0 0 0 0 0 0 0 0 0 0 0 0 0 0 0 0 0 0 0 0 0 0 0 0 0 0 0 0 0 0 0 0 0 0 0 0 0
0 0 0 0 0 0 0 0 0 0 0 0 0 0 0 0 0 0 0 0 0 0 0 0 0 0 0 0 0 0 0 0 0 0 0 0 0 0 0 0 0 0 0
0 0 0 0 0 0 0 0 0 0 0 0 0 0 0 0 0 0 0 0 0 0 0 0 0 0 0 0 0 0 0 0 0 0 0 0 0 0 0 0 0 0 0
0 0 0 0 0 0 0 0 0 0 0 0 0 0 0 0 0 0 0 0 0 0 0 0 0 0 0 0 0 0 0 0 0 0 0 1 1 0 1 0 0 0 0
0 0 0 0 0 0 0 0 0 0 0 0 0 0 0 0 0 0 0 0 0 0 0 0 0 0 0 0 0 0 0 0 0 0 0 0 0 0 0 0 0 0 0
0 0 0 0 0 0 0 0 0 0 0 0 0 0 0 0 0 0 1 0 0 0 0 0 0 0 0 0 0 0 1 0 0 0 0 0 0 0 0 0 0 0 0
0 0 0 0 0 0 0 0 0 0 0 0 0 0 0 0 0 0 1 0 0 0 0 0 0 0 0 1 2 2 1 0 0 0 1 1 0 0 0 0 0 0 0
0 0 0 0 0 0 0 0 0 0 0 0 0 0 0 0 0 0 0 0 0 0 0 0 0 0 1 0 0 2 0 0 1 2 1 0 0 0 0 0 0 0 0
0 0 0 0 0 0 0 0 0 0 0 0 0 0 0 0 0 0 0 0 0 0 0 0 0 1 0 0 0 0 0 0 0 0 0 0 0 0 0 0 0 0 0
0 0 0 0 0 0 0 0 0 0 0 0 0 0 0 0 0 0 0 0 0 1 0 0 0 0 0 0 0 0 0 1 0 0 0 0 0 0 0 0 0 0 0
0 0 0 0 0 0 0 0 0 0 0 0 0 0 0 0 0 0 0 0 1 5 1 1 0 0 0 0 0 0 2 1 1 0 0 0 0 0 0 0 0 0 0
0 0 0 0 0 0 0 0 0 0 0 0 0 0 0 0 0 2 1 1 1 0 0 0 1 0 1 0 0 0 0 0 0 0 0 0 0 0 0 0 0 0 0
0 0 0 0 0 0 0 0 0 0 0 0 0 0 0 0 0 0 0 0 1 1 0 0 0 0 0 0 0 0 0 0 0 0 0 0 0 0 0 0 0 0 0
0 0 0 0 0 0 0 0 0 0 0 0 0 0 0 0 0 1 0 0 1 0 0 0 0 0 0 0 0 0 0 0 0 0 0 0 0 0 0 0 0 0 0
0 0 0 0 0 0 0 0 0 0 0 0 0 0 0 0 0 0 0 0 0 0 0 0 0 0 0 0 0 0 0 0 0 0 0 0 0 0 0 0 0 0 0
0 0 0 0 0 0 0 0 0 0 0 0 0 0 0 0 0 0 0 0 0 0 0 0 0 0 0 0 0 0 0 0 0 0 0 0 0 0 0 0 0 0 0
0 0 0 0 0 0 0 0 0 0 0 0 0 0 0 0 0 0 0 0 0 0 0 0 0 0 0 0 0 0 0 0 0 0 0 0 0 0 0 0 0 0 0
0 0 0 0 0 0 0 0 0 0 0 0 0 0 0 0 0 0 0 0 0 0 0 0 0 0 0 0 0 0 0 0 0 0 0 0 0 0 0 0 0 0 0
0 0 0 0 0 0 0 0 0 0 0 0 0 0 0 0 0 0 0 0 0 0 0 0 0 0 0 0 0 0 0 0 0 0 0 0 0 0 0 0 0 0 0
0 0 0 0 0 0 0 0 0 0 0 0 0 0 0 0 0 0 0 0 0 0 0 0 0 0 0 0 0 0 0 0 0 0 0 0 0 0 0 0 0 0 0
CIN
-0 -0 -0 -0 -0 -0 -0 -0 -167 -44 -0 -0 -0 -0 -0 -0 -0 -0 -0 -0 -0 -0 -0 -0 -0 -0 -0 -0 -0 -0 -0 -0 -0 -0 -0 -0 -0 -0 -0 -0 -0 -0 -0
-0 -0 -0 -0 -0 -7 -155 -144 -185 -115 -0 -3 -0 -0 -0 -0 -0 -0 -0 -0 -0 -0 -0 -0 -0 -0 -0 -0 -0 -0 -0 -0 -0 -0 -0 -0 -0 -0 -0 -0 -0 -0 -0
-0 -0 -0 -0 -0 -0 -26 -43 -0 -0 -0 -0 -0 -0 -0 -0 -0 -0 -0 -0 -0 -0 -0 -0 -0 -0 -0 -0 -0 -0 -0 -0 -0 -0 -0 -0 -0 -0 -0 -0 -0 -0 -0
-0 -0 -0 -0 -0 -0 -0 -1 -0 -0 -0 -0 -0 -0 -0 -0 -0 -0 -0 -0 -0 -0 -0 -0 -0 -0 -0 -0 -0 -0 -0 -0 -0 -0 -0 -0 -0 -0 -0 -0 -0 -0 -0
-0 -0 -0 -0 -0 -0 -0 -0 -0 -0 -0 -0 -0 -0 -0 -0 -0 -0 -0 -0 -0 -0 -0 -0 -0 -0 -0 -0 -0 -0 -0 -0 -0 -0 -0 -0 -0 -0 -0 -0 -0 -0 -0
-0 -0 -0 -0 -0 -0 -0 -0 -0 -0 -0 -0 -0 -0 -0 -0 -0 -0 -0 -0 -0 -0 -0 -0 -0 -0 -0 -0 -0 -0 -0 -0 -0 -0 -0 -0 -0 -0 -0 -0 -0 -0 -0
-0 -0 -0 -0 -0 -0 -0 -0 -0 -0 -0 -0 -0 -0 -0 -0 -0 -0 -0 -0 -0 -0 -0 -0 -0 -0 -0 -0 -0 -0 -0 -0 -0 -0 -0 -0 -0 -0 -0 -0 -0 -0 -0
-0 -0 -0 -0 -0 -0 -0 -0 -0 -0 -0 -0 -0 -0 -0 -0 -0 -0 -0 -0 -0 -0 -0 -0 -0 -0 -0 -0 -0 -0 -0 -0 -0 -0 -0 -0 -0 -0 -0 -0 -0 -0 -0
-0 -0 -0 -0 -0 -0 -0 -0 -0 -0 -0 -0 -0 -0 -0 -0 -0 -0 -0 -0 -0 -0 -0 -0 -0 -0 -0 -0 -0 -0 -0 -0 -0 -0 -0 -0 -0 -0 -0 -0 -0 -0 -0
-0 -0 -0 -0 -0 -0 -0 -0 -0 -0 -0 -0 -0 -0 -0 -0 -0 -0 -0 -0 -0 -0 -0 -0 -0 -0 -0 -0 -0 -0 -0 -0 -0 -0 -0 -0 -0 -0 -0 -0 -0 -0 -0
-0 -0 -0 -0 -0 -0 -0 -0 -0 -0 -0 -0 -0 -0 -0 -0 -0 -0 -0 -0 -0 -0 -0 -0 -0 -0 -0 -0 -0 -0 -0 -0 -0 -0 -0 -0 -0 -0 -0 -0 -0 -0 -0
-0 -0 -0 -0 -0 -0 -0 -0 -0 -0 -0 -0 -0 -0 -0 -0 -0 -0 -0 -0 -0 -0 -0 -0 -0 -0 -0 -0 -0 -0 -0 -0 -0 -0 -0 -0 -0 -0 -0 -0 -0 -0 -0
-0 -0 -0 -0 -0 -0 -0 -0 -0 -0 -0 -0 -0 -0 -0 -0 -0 -0 -0 -0 -0 -0 -0 -0 -0 -0 -0 -0 -0 -0 -0 -0 -0 -0 -0 -0 -0 -0 -0 -0 -0 -0 -0
-0 -0 -0 -0 -0 -0 -0 -0 -0 -0 -0 -0 -0 -0 -0 -0 -0 -0 -0 -0 -0 -0 -0 -0 -0 -0 -0 -0 -0 -0 -0 -0 -0 -0 -0 -0 -0 -0 -0 -0 -0 -0 -0
-0 -0 -0 -0 -0 -0 -0 -0 -0 -0 -0 -0 -0 -0 -0 -0 -0 -0 -0 -0 -0 -0 -0 -0 -0 -0 -0 -0 -0 -0 -0 -0 -0 -0 -0 -0 -0 -0 -0 -0 -0 -0 -0
-0 -0 -0 -0 -0 -0 -0 -0 -0 -0 -0 -0 -0 -0 -0 -0 -0 -0 -0 -0 -0 -0 -0 -0 -0 -0 -0 -0 -0 -0 -0 -0 -0 -0 -0 -0 -0 -0 -0 -0 -0 -0 -0
-0 -0 -0 -0 -0 -0 -0 -0 -0 -0 -0 -0 -0 -0 -0 -0 -0 -0 -0 -0 -0 -0 -0 -0 -0 -0 -0 -0 -0 -0 -0 -0 -0 -0 -0 -0 -0 -0 -0 -0 -0 -0 -0
-0 -0 -0 -0 -0 -0 -0 -0 -0 -0 -0 -0 -0 -0 -0 -0 -0 -0 -0 -0 -0 -0 -0 -0 -0 -0 -0 -0 -0 -0 -0 -0 -0 -0 -0 -0 -0 -0 -0 -0 -0 -0 -0
-0 -0 -0 -0 -0 -0 -0 -0 -0 -0 -0 -0 -0 -0 -0 -0 -0 -0 -0 -0 -0 -0 -0 -0 -0 -0 -0 -0 -0 -0 -0 -0 -0 -0 -0 -0 -0 -0 -0 -0 -0 -0 -0
-0 -0 -0 -0 -0 -0 -0 -0 -0 -0 -0 -0 -0 -0 -0 -0 -0 -0 -0 -0 -0 -0 -0 -3 -0 -0 -0 -0 -0 -0 -0 -0 -0 -0 -0 -0 -0 -0 -0 -0 -0 -0 -0
-0 -0 -0 -0 -0 -0 -0 -0 -0 -0 -0 -0 -0 -0 -0 -0 -0 -0 -0 -0 -0 -0 -0 -0 -0 -0 -0 -0 -0 -0 -0 -0 -0 -0 -0 -0 -0 -0 -0 -0 -0 -0 -0
-0 -0 -0 -0 -0 -0 -0 -0 -0 -0 -0 -0 -0 -0 -0 -0 -0 -0 -0 -0 -0 -0 -0 -0 -0 -0 -0 -0 -0 -0 -0 -0 -0 -0 -0 -0 -0 -0 -0 -0 -0 -0 -0
-0 -0 -0 -0 -0 -0 -0 -0 -0 -0 -0 -0 -0 -0 -0 -0 -0 -0 -0 -0 -0 -0 -0 -0 -0 -0 -0 -0 -0 -0 -0 -0 -0 -0 -0 -0 -0 -0 -0 -0 -0 -0 -0
-0 -0 -0 -0 -0 -0 -0 -0 -0 -0 -0 -0 -0 -0 -0 -0 -0 -0 -0 -0 -0 -0 -0 -0 -0 -0 -0 -0 -0 -0 -0 -0 -0 -0 -0 -0 -0 -0 -0 -0 -0 -0 -0
-0 -0 -0 -0 -0 -0 -0 -0 -0 -0 -0 -0 -0 -0 -0 -0 -0 -0 -0 -0 -0 -0 -0 -0 -0 -0 -0 -0 -0 -0 -0 -0 -0 -0 -0 -0 -0 -0 -0 -0 -0 -0 -0
-0 -0 -0 -0 -0 -0 -0 -0 -0 -0 -0 -0 -0 -0 -0 -0 -0 -0 -0 -0 -0 -0 -0 -0 -0 -0 -0 -0 -0 -0 -0 -0 -0 -0 -0 -0 -0 -0 -0 -0 -0 -0 -0
Wind_Speed
22 24 25 26 26 25 26 26 27 27 25 24 24 24 24 24 23 23 23 24 22 21 20 19 19 17 16 15 15 15 15 16 20 18 16 16 17 18 18 19 20 20 21
25 24 25 27 28 27 27 28 29 28 26 26 26 26 25 25 24 25 25 24 23 23 21 20 19 17 16 15 15 16 16 16 18 20 17 16 16 18 17 19 19 20 23
24 26 28 29 31 30 29 30 29 28 27 27 27 28 28 27 26 25 25 25 24 24 22 22 19 17 17 16 16 16 16 17 16 17 16 15 18 18 18 19 20 21 23
22 23 25 26 27 27 27 28 28 28 27 28 28 28 27 27 27 26 25 24 25 23 23 22 21 18 17 16 16 15 15 13 14 15 15 16 18 19 19 20 22 21 24
25 24 24 24 22 22 24 25 26 28 28 27 27 26 25 26 24 25 24 24 23 23 22 20 21 19 18 15 15 15 14 15 17 16 17 18 21 21 21 20 22 23 22
25 25 24 23 22 22 22 22 23 23 24 25 25 25 25 25 24 23 21 23 21 21 20 20 19 18 19 18 14 15 14 15 17 16 17 19 22 20 18 20 21 24 24
25 25 24 22 21 21 23 24 26 26 26 27 26 26 26 26 23 21 19 19 21 19 18 19 17 17 16 15 16 16 16 14 15 14 16 19 22 18 18 20 21 22 22
22 23 24 24 26 26 26 26 27 28 29 29 27 26 25 24 21 19 18 19 18 17 17 15 17 17 17 17 17 17 17 16 15 16 17 21 21 18 16 18 21 21 22
23 23 23 23 24 25 26 26 27 26 26 25 24 24 23 21 17 16 16 16 17 16 15 16 16 15 14 14 18 18 17 18 16 17 19 21 20 18 18 18 23 22 24
22 22 20 20 20 21 22 23 23 23 24 23 24 21 20 20 16 14 14 14 14 16 14 20 18 15 16 15 15 17 19 19 17 19 21 19 19 19 19 19 21 22 22
21 21 22 22 23 22 22 22 23 23 22 22 21 20 19 16 14 13 12 13 15 14 15 16 17 16 17 16 16 17 19 18 18 19 20 22 25 23 22 21 19 20 21
21 22 22 22 22 22 21 22 22 22 22 23 22 22 20 19 16 13 12 15 17 17 17 18 19 18 18 20 19 19 19 19 21 23 25 28 28 26 23 22 20 19 19
22 23 24 24 24 24 24 23 23 23 23 23 23 23 23 21 18 15 13 13 15 15 17 18 17 18 18 20 21 21 21 21 24 26 27 29 26 24 22 22 20 19 20
22 23 24 24 24 24 24 25 25 25 24 24 24 23 22 20 18 17 16 15 16 17 20 21 22 22 21 22 22 21 22 23 25 28 30 28 24 25 24 22 22 21 23
21 22 23 24 25 25 25 25 26 25 26 27 27 25 24 24 21 18 16 17 18 18 19 21 22 24 25 25 26 25 25 24 27 29 29 27 26 26 25 23 23 23 24
22 23 23 24 25 25 25 26 25 26 27 28 28 27 26 24 24 22 20 20 20 20 22 26 26 26 26 26 27 28 27 29 28 29 29 29 29 27 26 25 24 24 25
20 21 23 24 24 26 27 28 30 29 28 28 29 31 30 28 26 25 24 23 22 23 27 28 29 29 29 29 30 30 31 30 29 31 31 31 30 29 28 28 26 25 26
20 21 22 24 25 26 26 28 28 30 31 31 30 30 31 30 30 29 29 29 28 27 29 30 31 31 31 31 30 30 32 32 32 32 33 32 31 30 30 30 28 26 26
21 22 22 22 24 26 27 28 29 31 32 32 32 32 33 33 33 31 30 30 31 32 32 34 34 34 33 33 32 32 33 34 34 34 33 32 31 31 31 30 29 29 27
22 23 24 25 26 27 28 29 31 32 33 34 35 36 36 35 35 34 34 34 34 35 35 36 36 35 35 34 35 35 36 36 35 34 33 32 31 30 31 31 31 31 31
23 25 25 26 28 29 30 32 33 34 35 36 36 37 38 38 38 38 39 37 38 38 38 38 37 37 36 36 35 36 36 35 34 33 32 32 31 32 32 33 33 32 32
25 27 28 29 30 32 33 34 35 36 37 38 38 38 38 38 39 40 39 40 40 40 39 40 39 38 37 36 36 35 35 35 34 34 34 34 33 33 32 32 32 32 32
27 28 30 31 33 34 34 35 36 37 38 38 39 40 40 40 41 41 42 42 41 41 40 39 39 39 38 37 37 37 38 37 36 35 36 35 34 33 33 33 34 33 32
28 30 32 33 35 36 37 38 38 38 39 40 40 41 41 42 42 42 42 41 41 41 40 39 39 39 39 38 37 36 35 35 34 34 33 33 33 33 33 33 33 33 33
31 33 34 36 37 38 39 39 39 39 40 40 40 41 42 41 41 41 41 41 41 41 40 39 39 38 38 37 37 36 36 35 34 34 33 33 33 32 32 32 32 31 31
33 35 36 37 38 38 39 40 40 40 41 41 41 41 41 41 40 40 40 40 40 40 39 37 36 36 35 34 34 35 35 34 33 32 31 30 31 31 30 30 29 28 27
Wind_Direction
272 271 272 274 273 271 269 273 274 278 277 277 278 279 280 280 279 275 277 278 280 287 291 297 301 295 287 290 294 299 303 310 314 323 329 331 335 343 345 349 351 354 354
289 284 279 279 279 277 275 278 281 279 279 278 280 281 280 282 281 279 277 275 268 281 280 295 293 294 286 286 290 294 299 307 313 313 323 326 334 339 342 342 347 351 350
296 292 290 289 287 285 284 286 285 284 283 284 284 284 283 283 284 281 277 276 278 279 282 289 285 288 284 282 285 289 297 305 311 316 319 326 333 339 338 340 343 344 347
310 305 302 298 295 293 292 290 292 290 288 288 288 286 286 286 287 285 280 278 279 279 276 282 282 278 277 277 281 282 288 292 302 309 314 320 330 334 335 334 336 342 344
308 307 308 309 310 307 302 299 298 296 295 294 292 291 289 289 287 285 283 279 278 278 280 279 285 282 281 279 280 281 284 290 297 302 309 317 325 327 325 333 333 336 340
306 306 308 309 311 311 311 311 307 304 301 299 296 294 292 291 290 285 281 281 277 279 275 279 281 277 282 281 275 280 278 284 292 298 306 311 322 320 323 325 329 333 334
308 308 309 309 309 309 309 309 307 305 305 304 303 301 299 297 294 290 284 282 278 277 275 284 276 282 279 281 283 283 284 285 291 294 301 310 318 315 318 321 325 327 329
316 313 311 309 306 307 307 306 307 307 306 306 305 305 304 303 299 295 291 293 285 277 278 271 276 281 281 282 282 286 287 289 292 299 305 314 316 317 314 319 322 323 325
322 319 316 312 309 310 310 311 313 313 314 313 316 313 312 311 305 298 294 295 287 287 283 277 278 276 275 273 282 284 286 287 292 298 307 314 314 314 313 317 317 318 321
331 331 331 329 325 322 321 321 321 321 320 319 321 320 318 316 311 305 300 294 286 285 285 289 286 281 278 271 278 281 285 286 289 298 307 310 313 311 309 306 312 311 314
339 340 337 333 330 329 328 327 325 325 325 325 325 325 323 321 314 305 296 295 291 286 286 287 289 282 286 272 280 282 283 291 292 300 307 307 311 307 306 305 303 303 305
346 345 343 341 341 339 336 334 332 331 329 327 327 326 327 326 321 310 301 302 301 294 291 294 292 287 287 279 282 287 289 295 297 299 303 304 306 304 304 305 300 298 298
344 341 340 339 339 337 335 335 333 333 331 329 328 326 325 324 322 313 303 302 305 300 300 299 295 293 288 290 287 290 290 291 297 298 300 304 304 304 304 305 302 301 302
346 342 341 341 340 340 340 339 337 335 334 333 331 328 326 324 320 314 307 301 299 300 306 304 302 301 295 293 293 289 290 290 292 297 302 306 305 304 302 302 299 298 299
344 342 342 341 340 340 340 339 339 338 335 332 330 329 328 325 324 317 307 300 298 299 304 306 304 302 299 296 295 292 290 290 292 296 301 302 302 300 298 299 298 298 295
344 342 342 341 340 341 340 339 340 338 336 334 332 331 330 327 326 322 315 308 303 301 302 302 300 298 296 295 292 291 289 291 291 295 298 298 299 296 295 296 295 293 293
347 345 341 343 342 341 340 337 336 336 339 337 335 332 330 327 326 324 319 313 306 303 301 302 302 301 299 297 295 292 291 292 295 297 297 297 297 294 294 294 292 291 292
344 345 344 341 340 341 340 338 337 336 335 336 337 335 332 329 325 322 321 317 312 306 302 302 302 302 301 299 297 294 295 296 297 297 296 296 294 292 293 292 290 288 291
339 338 339 341 340 339 339 336 336 335 334 333 333 333 333 330 327 323 320 317 314 310 308 306 304 303 302 301 298 298 297 297 297 297 297 296 293 290 290 290 289 289 289
336 337 338 338 337 335 333 333 332 331 330 329 329 329 328 328 326 324 322 318 313 311 310 308 307 305 302 300 299 298 298 297 297 296 296 296 297 293 290 289 288 289 288
331 332 332 333 333 332 331 329 328 327 326 326 326 326 326 324 323 322 321 319 317 315 312 310 308 307 305 304 303 303 301 300 299 298 297 298 296 295 294 292 290 289 290
328 328 328 328 328 328 327 326 325 325 325 324 324 325 325 324 323 321 320 319 317 316 316 314 314 315 315 312 308 305 304 302 302 301 300 298 297 296 296 294 292 290 289
324 324 324 325 325 325 324 324 323 323 323 323 323 323 323 323 322 321 320 320 319 318 318 315 314 312 312 311 310 308 306 304 304 303 301 299 298 297 296 294 293 292 290
320 320 320 321 322 322 322 322 322 322 322 322 322 323 323 323 323 322 322 322 322 320 319 317 315 313 312 312 311 310 308 306 306 305 303 301 299 299 298 297 295 293 292
318 319 319 319 320 320 320 320 320 320 320 321 321 322 323 323 324 324 325 325 324 322 321 320 318 316 315 314 313 312 311 309 307 306 304 303 301 300 299 298 298 296 293
316 316 316 316 317 317 317 317 317 318 318 319 320 321 322 323 324 324 325 325 326 326 325 325 323 322 322 321 319 317 315 312 310 309 307 306 304 303 302 301 301 299 298